Location: Carbonear
(47.7333°N, 53.2500°W)
Time: 08:05:39
(UTC+00:00)

XW-2F - Pass Details

Date: 04 December 2022
Orbit: 473 x 485 km, 97.5° (Epoch: 28 January)

Event Time Altitude Azimuth Distance (km) Brightness Sun altitude
Rises 09:29:09 0° 22° (NNE) 2,535 ? -15.3°
Reaches altitude 10° 09:31:24 10° 34° (NNE) 1,653 ? -14.9°
Maximum altitude 09:34:33 30° 96° (E) 891 ? -14.4°
Drops below altitude 10° 09:37:42 10° 159° (SSE) 1,649 ? -13.9°
Sets 09:39:55 0° 171° (S) 2,527 ? -13.6°
